Time,TemperatureF,DewpointF,PressureIn,WindDirection,WindDirectionDegrees,WindSpeedMPH,WindSpeedGustMPH,Humidity,HourlyPrecipIn,Conditions,Clouds,dailyrainin,SolarRadiationWatts/m^2,SoftwareType,DateUTC
2013-01-25 00:02:00,58.7,54.8,29.73,ENE,78,11.0,13.0,87,0.00,,,0.00,0,HR-IXPWINDi_r2_v1.2.,2013-01-25 08:02:00,
2013-01-25 00:07:00,58.8,54.9,29.72,ENE,78,11.0,14.0,87,0.00,,,0.00,0,HR-IXPWINDi_r2_v1.2.,2013-01-25 08:07:00,
2013-01-25 00:12:00,59.6,55.3,29.72,East,80,11.0,14.0,86,0.00,,,0.00,0,HR-IXPWINDi_r2_v1.2.,2013-01-25 08:12:00,
2013-01-25 00:17:00,60.1,55.5,29.72,East,83,9.0,13.0,85,0.00,,,0.00,0,HR-IXPWINDi_r2_v1.2.,2013-01-25 08:17:00,
2013-01-25 00:22:00,60.2,55.3,29.72,East,81,8.0,11.0,84,0.00,,,0.00,0,HR-IXPWINDi_r2_v1.2.,2013-01-25 08:22:00,
2013-01-25 00:27:00,60.0,55.1,29.72,East,86,10.0,11.0,84,0.00,,,0.00,0,HR-IXPWINDi_r2_v1.2.,2013-01-25 08:27:00,
2013-01-25 00:33:00,60.2,55.3,29.72,East,84,10.0,13.0,84,0.00,,,0.00,0,HR-IXPWINDi_r2_v1.2.,2013-01-25 08:33:00,
2013-01-25 00:38:00,60.1,55.2,29.72,East,86,9.0,13.0,84,0.00,,,0.00,0,HR-IXPWINDi_r2_v1.2.,2013-01-25 08:38:00,
2013-01-25 00:43:00,59.9,55.0,29.72,East,87,10.0,13.0,84,0.00,,,0.00,0,HR-IXPWINDi_r2_v1.2.,2013-01-25 08:43:00,
2013-01-25 00:48:00,59.9,55.0,29.72,ENE,73,8.0,11.0,84,0.00,,,0.00,0,HR-IXPWINDi_r2_v1.2.,2013-01-25 08:48:00,
2013-01-25 00:54:00,59.7,55.1,29.72,East,80,11.0,11.0,85,0.00,,,0.00,0,HR-IXPWINDi_r2_v1.2.,2013-01-25 08:54:00,
2013-01-25 00:59:00,59.8,55.2,29.72,East,82,10.0,11.0,85,0.00,,,0.00,0,HR-IXPWINDi_r2_v1.2.,2013-01-25 08:59:00,
2013-01-25 01:04:00,60.1,55.5,29.72,East,86,9.0,11.0,85,0.00,,,0.00,0,HR-IXPWINDi_r2_v1.2.,2013-01-25 09:04:00,
2013-01-25 01:09:00,60.3,55.4,29.72,East,89,9.0,11.0,84,0.00,,,0.00,0,HR-IXPWINDi_r2_v1.2.,2013-01-25 09:09:00,
2013-01-25 01:14:00,60.4,55.5,29.72,East,92,9.0,10.0,84,0.00,,,0.00,0,HR-IXPWINDi_r2_v1.2.,2013-01-25 09:14:00,
2013-01-25 01:19:00,60.3,55.4,29.72,ESE,103,8.0,10.0,84,0.00,,,0.00,0,HR-IXPWINDi_r2_v1.2.,2013-01-25 09:19:00,
2013-01-25 01:24:00,60.3,55.4,29.72,East,98,9.0,10.0,84,0.00,,,0.00,0,HR-IXPWINDi_r2_v1.2.,2013-01-25 09:24:00,
2013-01-25 01:29:00,60.5,55.6,29.72,East,99,8.0,10.0,84,0.00,,,0.00,0,HR-IXPWINDi_r2_v1.2.,2013-01-25 09:29:00,
2013-01-25 01:34:00,60.6,55.3,29.72,ESE,102,8.0,10.0,83,0.00,,,0.00,0,HR-IXPWINDi_r2_v1.2.,2013-01-25 09:34:00,
2013-01-25 01:40:00,60.8,55.5,29.72,East,98,8.0,9.0,83,0.00,,,0.00,0,HR-IXPWINDi_r2_v1.2.,2013-01-25 09:40:00,
2013-01-25 01:45:00,60.8,55.5,29.72,East,101,7.0,9.0,83,0.00,,,0.00,0,HR-IXPWINDi_r2_v1.2.,2013-01-25 09:45:00,
2013-01-25 01:50:00,60.9,55.6,29.72,East,98,7.0,9.0,83,0.00,,,0.00,0,HR-IXPWINDi_r2_v1.2.,2013-01-25 09:50:00,
2013-01-25 01:55:00,61.0,56.1,29.72,East,101,8.0,9.0,84,0.00,,,0.00,0,HR-IXPWINDi_r2_v1.2.,2013-01-25 09:55:00,
2013-01-25 02:00:00,61.2,55.9,29.72,East,96,8.0,10.0,83,0.00,,,0.00,0,HR-IXPWINDi_r2_v1.2.,2013-01-25 10:00:00,
2013-01-25 02:06:00,61.3,56.0,29.72,East,96,8.0,10.0,83,0.00,,,0.00,0,HR-IXPWINDi_r2_v1.2.,2013-01-25 10:06:00,
2013-01-25 02:11:00,61.3,56.0,29.71,East,86,8.0,9.0,83,0.00,,,0.00,0,HR-IXPWINDi_r2_v1.2.,2013-01-25 10:11:00,
2013-01-25 02:16:00,61.1,55.8,29.71,East,90,8.0,9.0,83,0.00,,,0.00,0,HR-IXPWINDi_r2_v1.2.,2013-01-25 10:16:00,
2013-01-25 02:22:00,61.1,56.2,29.71,East,82,7.0,9.0,84,0.00,,,0.00,0,HR-IXPWINDi_r2_v1.2.,2013-01-25 10:22:00,
2013-01-25 02:27:00,60.9,56.0,29.71,East,90,8.0,9.0,84,0.00,,,0.00,0,HR-IXPWINDi_r2_v1.2.,2013-01-25 10:27:00,
2013-01-25 02:32:00,60.8,55.9,29.71,East,92,7.0,9.0,84,0.00,,,0.00,0,HR-IXPWINDi_r2_v1.2.,2013-01-25 10:32:00,
2013-01-25 02:37:00,60.7,55.8,29.71,East,89,8.0,9.0,84,0.00,,,0.00,0,HR-IXPWINDi_r2_v1.2.,2013-01-25 10:37:00,
2013-01-25 02:42:00,60.6,55.7,29.71,East,94,8.0,9.0,84,0.00,,,0.00,0,HR-IXPWINDi_r2_v1.2.,2013-01-25 10:42:00,
2013-01-25 02:48:00,60.7,56.1,29.71,East,90,8.0,9.0,85,0.00,,,0.00,0,HR-IXPWINDi_r2_v1.2.,2013-01-25 10:48:00,
2013-01-25 02:53:00,60.6,56.0,29.71,East,87,9.0,9.0,85,0.00,,,0.00,0,HR-IXPWINDi_r2_v1.2.,2013-01-25 10:53:00,
2013-01-25 02:58:00,60.7,56.1,29.71,East,91,7.0,9.0,85,0.00,,,0.00,0,HR-IXPWINDi_r2_v1.2.,2013-01-25 10:58:00,
2013-01-25 03:03:00,60.8,56.2,29.71,East,94,7.0,9.0,85,0.00,,,0.00,0,HR-IXPWINDi_r2_v1.2.,2013-01-25 11:03:00,
2013-01-25 03:08:00,60.8,56.2,29.71,East,93,8.0,9.0,85,0.00,,,0.00,0,HR-IXPWINDi_r2_v1.2.,2013-01-25 11:08:00,
2013-01-25 03:13:00,60.7,56.1,29.71,East,94,7.0,9.0,85,0.00,,,0.00,0,HR-IXPWINDi_r2_v1.2.,2013-01-25 11:13:00,
2013-01-25 03:18:00,60.8,56.2,29.71,East,92,7.0,9.0,85,0.00,,,0.00,0,HR-IXPWINDi_r2_v1.2.,2013-01-25 11:18:00,
2013-01-25 03:24:00,60.9,56.3,29.70,East,81,8.0,9.0,85,0.00,,,0.00,0,HR-IXPWINDi_r2_v1.2.,2013-01-25 11:24:00,
2013-01-25 03:29:00,60.9,56.3,29.70,East,90,9.0,9.0,85,0.00,,,0.00,0,HR-IXPWINDi_r2_v1.2.,2013-01-25 11:29:00,
2013-01-25 03:34:00,60.9,56.3,29.70,East,82,10.0,10.0,85,0.00,,,0.00,0,HR-IXPWINDi_r2_v1.2.,2013-01-25 11:34:00,
2013-01-25 03:39:00,60.9,56.3,29.70,East,91,9.0,11.0,85,0.00,,,0.00,0,HR-IXPWINDi_r2_v1.2.,2013-01-25 11:39:00,
2013-01-25 03:44:00,61.1,56.5,29.69,East,98,9.0,11.0,85,0.00,,,0.00,0,HR-IXPWINDi_r2_v1.2.,2013-01-25 11:44:00,
2013-01-25 03:49:00,61.3,56.4,29.69,East,101,7.0,10.0,84,0.00,,,0.00,0,HR-IXPWINDi_r2_v1.2.,2013-01-25 11:49:00,
2013-01-25 03:54:00,61.2,56.3,29.69,ESE,102,7.0,9.0,84,0.00,,,0.00,0,HR-IXPWINDi_r2_v1.2.,2013-01-25 11:54:00,
2013-01-25 03:59:00,61.2,56.6,29.70,East,90,6.0,8.0,85,0.00,,,0.00,0,HR-IXPWINDi_r2_v1.2.,2013-01-25 11:59:00,
2013-01-25 04:04:00,61.2,56.3,29.69,East,98,7.0,8.0,84,0.00,,,0.00,0,HR-IXPWINDi_r2_v1.2.,2013-01-25 12:04:00,
2013-01-25 04:10:00,61.4,56.5,29.69,ESE,103,7.0,8.0,84,0.00,,,0.00,0,HR-IXPWINDi_r2_v1.2.,2013-01-25 12:10:00,
2013-01-25 04:15:00,61.5,56.6,29.69,ESE,104,7.0,8.0,84,0.00,,,0.00,0,HR-IXPWINDi_r2_v1.2.,2013-01-25 12:15:00,
2013-01-25 04:21:00,61.8,56.5,29.69,ESE,103,5.0,8.0,83,0.00,,,0.00,0,HR-IXPWINDi_r2_v1.2.,2013-01-25 12:21:00,
2013-01-25 04:26:00,61.9,56.3,29.69,East,94,5.0,8.0,82,0.00,,,0.00,0,HR-IXPWINDi_r2_v1.2.,2013-01-25 12:26:00,
2013-01-25 04:31:00,61.8,56.2,29.69,East,92,5.0,7.0,82,0.00,,,0.00,0,HR-IXPWINDi_r2_v1.2.,2013-01-25 12:31:00,
2013-01-25 04:36:00,61.7,56.1,29.68,East,86,5.0,5.0,82,0.00,,,0.00,0,HR-IXPWINDi_r2_v1.2.,2013-01-25 12:36:00,
2013-01-25 04:42:00,61.8,56.2,29.68,East,84,3.0,5.0,82,0.00,,,0.00,0,HR-IXPWINDi_r2_v1.2.,2013-01-25 12:42:00,
2013-01-25 04:47:00,61.8,56.2,29.68,East,85,3.0,5.0,82,0.00,,,0.00,0,HR-IXPWINDi_r2_v1.2.,2013-01-25 12:47:00,
2013-01-25 04:52:00,61.7,56.1,29.68,ENE,77,5.0,7.0,82,0.00,,,0.00,0,HR-IXPWINDi_r2_v1.2.,2013-01-25 12:52:00,
2013-01-25 04:57:00,61.6,56.3,29.68,ENE,74,7.0,8.0,83,0.00,,,0.00,0,HR-IXPWINDi_r2_v1.2.,2013-01-25 12:57:00,
2013-01-25 05:02:00,61.4,56.1,29.68,East,80,7.0,9.0,83,0.00,,,0.00,0,HR-IXPWINDi_r2_v1.2.,2013-01-25 13:02:00,
2013-01-25 05:07:00,60.9,56.0,29.68,East,84,9.0,9.0,84,0.00,,,0.00,0,HR-IXPWINDi_r2_v1.2.,2013-01-25 13:07:00,
2013-01-25 05:13:00,60.6,56.0,29.67,East,86,9.0,10.0,85,0.00,,,0.00,0,HR-IXPWINDi_r2_v1.2.,2013-01-25 13:13:00,
2013-01-25 05:18:00,60.7,56.1,29.67,East,84,8.0,10.0,85,0.00,,,0.00,0,HR-IXPWINDi_r2_v1.2.,2013-01-25 13:18:00,
2013-01-25 05:23:00,60.7,56.4,29.67,East,90,8.0,9.0,86,0.00,,,0.00,0,HR-IXPWINDi_r2_v1.2.,2013-01-25 13:23:00,
2013-01-25 05:28:00,61.1,56.8,29.67,East,88,9.0,10.0,86,0.00,,,0.00,0,HR-IXPWINDi_r2_v1.2.,2013-01-25 13:28:00,
2013-01-25 05:33:00,61.2,56.3,29.67,East,90,9.0,10.0,84,0.00,,,0.00,0,HR-IXPWINDi_r2_v1.2.,2013-01-25 13:33:00,
2013-01-25 05:39:00,61.1,56.5,29.67,East,88,10.0,11.0,85,0.00,,,0.00,0,HR-IXPWINDi_r2_v1.2.,2013-01-25 13:39:00,
2013-01-25 05:44:00,60.9,56.6,29.67,East,92,9.0,11.0,86,0.00,,,0.00,0,HR-IXPWINDi_r2_v1.2.,2013-01-25 13:44:00,
2013-01-25 05:49:00,60.8,56.5,29.67,East,97,9.0,11.0,86,0.00,,,0.00,0,HR-IXPWINDi_r2_v1.2.,2013-01-25 13:49:00,
2013-01-25 05:54:00,61.0,56.7,29.67,ESE,103,8.0,11.0,86,0.00,,,0.00,0,HR-IXPWINDi_r2_v1.2.,2013-01-25 13:54:00,
2013-01-25 06:00:00,61.1,56.5,29.68,ESE,109,9.0,10.0,85,0.00,,,0.00,0,HR-IXPWINDi_r2_v1.2.,2013-01-25 14:00:00,
2013-01-25 06:05:00,61.2,56.6,29.68,ESE,111,8.0,11.0,85,0.00,,,0.00,0,HR-IXPWINDi_r2_v1.2.,2013-01-25 14:05:00,
2013-01-25 06:10:00,61.3,56.7,29.68,ESE,105,7.0,11.0,85,0.00,,,0.00,0,HR-IXPWINDi_r2_v1.2.,2013-01-25 14:10:00,
2013-01-25 06:15:00,61.5,56.9,29.68,East,96,9.0,10.0,85,0.00,,,0.00,0,HR-IXPWINDi_r2_v1.2.,2013-01-25 14:15:00,
2013-01-25 06:20:00,61.7,56.8,29.68,East,91,7.0,9.0,84,0.00,,,0.00,0,HR-IXPWINDi_r2_v1.2.,2013-01-25 14:20:00,
2013-01-25 06:25:00,61.9,56.6,29.68,East,84,9.0,11.0,83,0.00,,,0.00,0,HR-IXPWINDi_r2_v1.2.,2013-01-25 14:25:00,
2013-01-25 06:30:00,62.0,56.7,29.68,East,92,8.0,11.0,83,0.00,,,0.00,0,HR-IXPWINDi_r2_v1.2.,2013-01-25 14:30:00,
2013-01-25 06:36:00,62.2,56.9,29.68,ESE,103,8.0,11.0,83,0.00,,,0.00,0,HR-IXPWINDi_r2_v1.2.,2013-01-25 14:36:00,
2013-01-25 06:41:00,62.3,56.7,29.68,ESE,102,7.0,10.0,82,0.00,,,0.00,0,HR-IXPWINDi_r2_v1.2.,2013-01-25 14:41:00,
2013-01-25 06:46:00,62.4,56.8,29.68,East,88,9.0,10.0,82,0.00,,,0.00,0,HR-IXPWINDi_r2_v1.2.,2013-01-25 14:46:00,
2013-01-25 06:52:00,62.6,57.0,29.69,East,101,7.0,10.0,82,0.00,,,0.00,0,HR-IXPWINDi_r2_v1.2.,2013-01-25 14:52:00,
2013-01-25 06:57:00,62.6,57.0,29.69,East,100,6.0,10.0,82,0.00,,,0.00,0,HR-IXPWINDi_r2_v1.2.,2013-01-25 14:57:00,
2013-01-25 07:02:00,62.6,57.0,29.69,ESE,107,5.0,8.0,82,0.00,,,0.00,0,HR-IXPWINDi_r2_v1.2.,2013-01-25 15:02:00,
2013-01-25 07:07:00,62.5,56.9,29.69,East,100,3.0,7.0,82,0.00,,,0.00,0,HR-IXPWINDi_r2_v1.2.,2013-01-25 15:07:00,
2013-01-25 07:13:00,62.3,56.7,29.69,NE,53,0.0,6.0,82,0.00,,,0.00,0,HR-IXPWINDi_r2_v1.2.,2013-01-25 15:13:00,
2013-01-25 07:18:00,62.3,57.0,29.69,East,80,0.0,3.0,83,0.00,,,0.00,0,HR-IXPWINDi_r2_v1.2.,2013-01-25 15:18:00,
2013-01-25 07:23:00,62.2,56.9,29.69,East,80,0.0,2.0,83,0.00,,,0.01,7,HR-IXPWINDi_r2_v1.2.,2013-01-25 15:23:00,
2013-01-25 07:28:00,62.2,56.9,29.69,ENE,77,0.0,2.0,83,0.00,,,0.01,11,HR-IXPWINDi_r2_v1.2.,2013-01-25 15:28:00,
2013-01-25 07:33:00,62.0,56.7,29.68,ENE,77,0.0,2.0,83,0.00,,,0.01,16,HR-IXPWINDi_r2_v1.2.,2013-01-25 15:33:00,
2013-01-25 07:38:00,61.9,56.9,29.69,ENE,77,0.0,0.0,84,0.00,,,0.01,19,HR-IXPWINDi_r2_v1.2.,2013-01-25 15:38:00,
2013-01-25 07:44:00,61.8,56.8,29.68,ENE,78,1.0,1.0,84,0.00,,,0.01,26,HR-IXPWINDi_r2_v1.2.,2013-01-25 15:44:00,
2013-01-25 07:49:00,61.8,56.8,29.68,East,79,0.0,2.0,84,0.00,,,0.01,28,HR-IXPWINDi_r2_v1.2.,2013-01-25 15:49:00,
2013-01-25 07:54:00,61.8,56.8,29.68,East,79,0.0,2.0,84,0.00,,,0.01,25,HR-IXPWINDi_r2_v1.2.,2013-01-25 15:54:00,
2013-01-25 07:59:00,61.8,56.8,29.68,East,79,0.0,2.0,84,0.00,,,0.01,21,HR-IXPWINDi_r2_v1.2.,2013-01-25 15:59:00,
2013-01-25 08:04:00,61.7,56.8,29.68,NE,56,1.0,2.0,84,0.00,,,0.01,23,HR-IXPWINDi_r2_v1.2.,2013-01-25 16:04:00,
2013-01-25 08:10:00,61.5,56.9,29.69,NE,55,2.0,3.0,85,0.00,,,0.01,26,HR-IXPWINDi_r2_v1.2.,2013-01-25 16:10:00,
2013-01-25 08:15:00,61.3,56.7,29.69,NE,55,2.0,3.0,85,0.00,,,0.01,26,HR-IXPWINDi_r2_v1.2.,2013-01-25 16:15:00,
2013-01-25 08:20:00,61.3,57.0,29.69,NE,53,3.0,3.0,86,0.00,,,0.01,33,HR-IXPWINDi_r2_v1.2.,2013-01-25 16:20:00,
2013-01-25 08:25:00,61.2,56.9,29.69,NE,55,4.0,5.0,86,0.00,,,0.01,40,HR-IXPWINDi_r2_v1.2.,2013-01-25 16:25:00,
2013-01-25 08:30:00,61.1,56.8,29.69,ENE,78,4.0,7.0,86,0.00,,,0.01,49,HR-IXPWINDi_r2_v1.2.,2013-01-25 16:30:00,
2013-01-25 08:35:00,60.7,56.7,29.69,East,82,3.0,7.0,87,0.00,,,0.01,40,HR-IXPWINDi_r2_v1.2.,2013-01-25 16:35:00,
2013-01-25 08:40:00,60.6,57.0,29.69,East,82,2.0,5.0,88,0.00,,,0.01,33,HR-IXPWINDi_r2_v1.2.,2013-01-25 16:40:00,
2013-01-25 08:46:00,60.7,57.1,29.69,ENE,76,1.0,5.0,88,0.00,,,0.01,42,HR-IXPWINDi_r2_v1.2.,2013-01-25 16:46:00,
2013-01-25 08:51:00,60.6,57.0,29.69,ENE,75,1.0,3.0,88,0.00,,,0.01,49,HR-IXPWINDi_r2_v1.2.,2013-01-25 16:51:00,
2013-01-25 08:56:00,60.7,57.1,29.69,ENE,76,1.0,2.0,88,0.00,,,0.01,51,HR-IXPWINDi_r2_v1.2.,2013-01-25 16:56:00,
2013-01-25 09:01:00,60.9,57.3,29.69,ENE,75,2.0,3.0,88,0.00,,,0.01,44,HR-IXPWINDi_r2_v1.2.,2013-01-25 17:01:00,
2013-01-25 09:06:00,60.8,57.2,29.69,ENE,64,3.0,3.0,88,0.00,,,0.01,53,HR-IXPWINDi_r2_v1.2.,2013-01-25 17:06:00,
2013-01-25 09:12:00,60.4,56.8,29.70,NE,54,2.0,4.0,88,0.00,,,0.01,65,HR-IXPWINDi_r2_v1.2.,2013-01-25 17:12:00,
2013-01-25 09:17:00,60.2,56.9,29.70,ENE,68,3.0,4.0,89,0.00,,,0.01,81,HR-IXPWINDi_r2_v1.2.,2013-01-25 17:17:00,
2013-01-25 09:22:00,60.2,56.9,29.70,East,90,3.0,5.0,89,0.00,,,0.01,86,HR-IXPWINDi_r2_v1.2.,2013-01-25 17:22:00,
2013-01-25 09:27:00,60.3,57.0,29.70,ESE,115,4.0,5.0,89,0.00,,,0.01,102,HR-IXPWINDi_r2_v1.2.,2013-01-25 17:27:00,
2013-01-25 09:32:00,60.6,57.3,29.70,SSE,159,2.0,5.0,89,0.00,,,0.01,130,HR-IXPWINDi_r2_v1.2.,2013-01-25 17:32:00,
2013-01-25 09:38:00,61.1,57.8,29.70,SW,216,3.0,4.0,89,0.00,,,0.01,139,HR-IXPWINDi_r2_v1.2.,2013-01-25 17:38:00,
2013-01-25 09:43:00,61.4,58.1,29.71,SW,218,4.0,6.0,89,0.00,,,0.01,146,HR-IXPWINDi_r2_v1.2.,2013-01-25 17:43:00,
2013-01-25 09:48:00,61.4,58.1,29.71,SSW,209,4.0,6.0,89,0.00,,,0.01,130,HR-IXPWINDi_r2_v1.2.,2013-01-25 17:48:00,
2013-01-25 09:53:00,61.2,57.5,29.71,SW,231,4.0,7.0,88,0.00,,,0.01,98,HR-IXPWINDi_r2_v1.2.,2013-01-25 17:53:00,
2013-01-25 09:58:00,60.0,56.4,29.71,SW,236,6.0,7.0,88,0.00,,,0.01,91,HR-IXPWINDi_r2_v1.2.,2013-01-25 17:58:00,
2013-01-25 10:03:00,59.1,56.1,29.71,SSW,207,3.0,6.0,90,0.00,,,0.01,93,HR-IXPWINDi_r2_v1.2.,2013-01-25 18:03:00,
2013-01-25 10:08:00,58.6,55.6,29.72,WSW,238,5.0,8.0,90,0.00,,,0.01,109,HR-IXPWINDi_r2_v1.2.,2013-01-25 18:08:00,
2013-01-25 10:13:00,58.0,55.3,29.72,SW,235,7.0,8.0,91,0.00,,,0.01,130,HR-IXPWINDi_r2_v1.2.,2013-01-25 18:13:00,
2013-01-25 10:19:00,57.8,55.4,29.72,SSW,207,6.0,8.0,92,0.00,,,0.01,146,HR-IXPWINDi_r2_v1.2.,2013-01-25 18:19:00,
2013-01-25 10:24:00,57.6,55.2,29.72,SW,226,6.0,7.0,92,0.00,,,0.01,158,HR-IXPWINDi_r2_v1.2.,2013-01-25 18:24:00,
2013-01-25 10:29:00,57.6,55.5,29.72,SSW,210,5.0,7.0,93,0.00,,,0.01,165,HR-IXPWINDi_r2_v1.2.,2013-01-25 18:29:00,
2013-01-25 10:34:00,57.9,55.8,29.72,SSW,209,4.0,7.0,93,0.00,,,0.01,149,HR-IXPWINDi_r2_v1.2.,2013-01-25 18:34:00,
2013-01-25 10:39:00,58.2,56.1,29.72,SSW,198,2.0,7.0,93,0.00,,,0.01,130,HR-IXPWINDi_r2_v1.2.,2013-01-25 18:39:00,
2013-01-25 10:44:00,58.6,56.5,29.72,SSW,193,4.0,4.0,93,0.00,,,0.01,111,HR-IXPWINDi_r2_v1.2.,2013-01-25 18:44:00,
2013-01-25 10:50:00,58.9,56.8,29.72,SSW,205,3.0,5.0,93,0.00,,,0.01,105,HR-IXPWINDi_r2_v1.2.,2013-01-25 18:50:00,
2013-01-25 10:55:00,59.2,57.1,29.72,SW,217,5.0,5.0,93,0.00,,,0.01,118,HR-IXPWINDi_r2_v1.2.,2013-01-25 18:55:00,
2013-01-25 11:00:00,59.5,57.4,29.71,SSW,211,5.0,5.0,93,0.00,,,0.01,151,HR-IXPWINDi_r2_v1.2.,2013-01-25 19:00:00,
2013-01-25 11:05:00,60.5,58.4,29.71,SW,215,3.0,7.0,93,0.00,,,0.01,167,HR-IXPWINDi_r2_v1.2.,2013-01-25 19:05:00,
2013-01-25 11:10:00,61.2,58.5,29.71,SSW,211,1.0,7.0,91,0.00,,,0.01,163,HR-IXPWINDi_r2_v1.2.,2013-01-25 19:10:00,
2013-01-25 11:15:00,61.6,58.9,29.71,South,188,7.0,9.0,91,0.00,,,0.01,162,HR-IXPWINDi_r2_v1.2.,2013-01-25 19:15:00,
2013-01-25 11:20:00,61.9,58.2,29.70,South,178,9.0,9.0,88,0.00,,,0.01,160,HR-IXPWINDi_r2_v1.2.,2013-01-25 19:20:00,
2013-01-25 11:26:00,62.2,57.6,29.70,SSE,160,7.0,14.0,85,0.00,,,0.01,165,HR-IXPWINDi_r2_v1.2.,2013-01-25 19:26:00,
2013-01-25 11:31:00,62.4,57.1,29.69,SSE,164,7.0,14.0,83,0.00,,,0.01,190,HR-IXPWINDi_r2_v1.2.,2013-01-25 19:31:00,
2013-01-25 11:36:00,62.7,57.1,29.69,SE,144,6.0,10.0,82,0.00,,,0.01,206,HR-IXPWINDi_r2_v1.2.,2013-01-25 19:36:00,
2013-01-25 11:41:00,63.0,57.4,29.69,SSE,163,4.0,8.0,82,0.00,,,0.01,213,HR-IXPWINDi_r2_v1.2.,2013-01-25 19:41:00,
2013-01-25 11:46:00,63.4,57.4,29.68,West,273,2.0,7.0,81,0.00,,,0.01,207,HR-IXPWINDi_r2_v1.2.,2013-01-25 19:46:00,
2013-01-25 11:52:00,63.4,57.4,29.68,WNW,285,3.0,5.0,81,0.00,,,0.01,200,HR-IXPWINDi_r2_v1.2.,2013-01-25 19:52:00,
2013-01-25 11:57:00,63.3,57.3,29.67,West,277,3.0,5.0,81,0.00,,,0.01,209,HR-IXPWINDi_r2_v1.2.,2013-01-25 19:57:00,
2013-01-25 12:02:00,63.3,57.3,29.67,West,277,4.0,5.0,81,0.00,,,0.01,214,HR-IXPWINDi_r2_v1.2.,2013-01-25 20:02:00,
2013-01-25 12:07:00,63.3,57.3,29.66,West,280,3.0,5.0,81,0.00,,,0.01,190,HR-IXPWINDi_r2_v1.2.,2013-01-25 20:07:00,
2013-01-25 12:12:00,63.2,56.9,29.66,West,280,2.0,4.0,80,0.00,,,0.01,172,HR-IXPWINDi_r2_v1.2.,2013-01-25 20:12:00,
2013-01-25 12:18:00,63.2,56.9,29.66,West,280,1.0,4.0,80,0.00,,,0.01,185,HR-IXPWINDi_r2_v1.2.,2013-01-25 20:18:00,
2013-01-25 12:23:00,63.2,56.9,29.66,West,280,1.0,4.0,80,0.00,,,0.01,206,HR-IXPWINDi_r2_v1.2.,2013-01-25 20:23:00,
2013-01-25 12:28:00,63.2,56.9,29.65,West,280,0.0,3.0,80,0.00,,,0.01,221,HR-IXPWINDi_r2_v1.2.,2013-01-25 20:28:00,
2013-01-25 12:33:00,63.3,57.3,29.65,West,280,0.0,2.0,81,0.00,,,0.01,218,HR-IXPWINDi_r2_v1.2.,2013-01-25 20:33:00,
2013-01-25 12:38:00,63.5,57.2,29.65,West,280,0.0,3.0,80,0.00,,,0.01,214,HR-IXPWINDi_r2_v1.2.,2013-01-25 20:38:00,
2013-01-25 12:44:00,63.9,57.5,29.64,West,280,0.0,3.0,80,0.00,,,0.01,221,HR-IXPWINDi_r2_v1.2.,2013-01-25 20:44:00,
2013-01-25 12:49:00,64.2,57.8,29.64,West,280,0.0,2.0,80,0.00,,,0.01,213,HR-IXPWINDi_r2_v1.2.,2013-01-25 20:49:00,
2013-01-25 12:54:00,64.4,57.7,29.64,West,280,0.0,2.0,79,0.00,,,0.01,200,HR-IXPWINDi_r2_v1.2.,2013-01-25 20:54:00,
2013-01-25 12:59:00,64.5,57.4,29.64,SW,216,0.0,3.0,78,0.00,,,0.01,188,HR-IXPWINDi_r2_v1.2.,2013-01-25 20:59:00,
2013-01-25 13:05:00,64.8,57.4,29.63,WSW,252,1.0,3.0,77,0.00,,,0.01,185,HR-IXPWINDi_r2_v1.2.,2013-01-25 21:05:00,
2013-01-25 13:10:00,64.9,58.2,29.63,NW,317,2.0,4.0,79,0.00,,,0.01,178,HR-IXPWINDi_r2_v1.2.,2013-01-25 21:10:00,
2013-01-25 13:15:00,63.9,57.2,29.63,NW,321,2.0,4.0,79,0.00,,,0.01,179,HR-IXPWINDi_r2_v1.2.,2013-01-25 21:15:00,
2013-01-25 13:20:00,62.9,56.9,29.63,NW,321,0.0,4.0,81,0.00,,,0.01,195,HR-IXPWINDi_r2_v1.2.,2013-01-25 21:20:00,
2013-01-25 13:25:00,62.7,57.1,29.62,NW,321,0.0,3.0,82,0.00,,,0.01,218,HR-IXPWINDi_r2_v1.2.,2013-01-25 21:25:00,
2013-01-25 13:30:00,62.8,57.5,29.62,NW,321,0.0,1.0,83,0.00,,,0.01,221,HR-IXPWINDi_r2_v1.2.,2013-01-25 21:30:00,
2013-01-25 13:35:00,63.0,57.4,29.62,NW,321,0.0,0.0,82,0.00,,,0.01,220,HR-IXPWINDi_r2_v1.2.,2013-01-25 21:35:00,
2013-01-25 13:41:00,63.3,57.3,29.62,NW,321,2.0,2.0,81,0.00,,,0.01,214,HR-IXPWINDi_r2_v1.2.,2013-01-25 21:41:00,
2013-01-25 13:46:00,63.5,57.5,29.62,North,5,1.0,4.0,81,0.00,,,0.01,199,HR-IXPWINDi_r2_v1.2.,2013-01-25 21:46:00,
2013-01-25 13:51:00,63.4,57.1,29.62,North,5,4.0,4.0,80,0.00,,,0.01,178,HR-IXPWINDi_r2_v1.2.,2013-01-25 21:51:00,
2013-01-25 13:56:00,63.0,57.0,29.62,NNE,30,4.0,5.0,81,0.00,,,0.01,148,HR-IXPWINDi_r2_v1.2.,2013-01-25 21:56:00,
2013-01-25 14:02:00,62.6,57.0,29.62,NE,34,3.0,5.0,82,0.00,,,0.01,130,HR-IXPWINDi_r2_v1.2.,2013-01-25 22:02:00,
2013-01-25 14:07:00,62.4,57.1,29.62,NE,36,3.0,5.0,83,0.00,,,0.01,114,HR-IXPWINDi_r2_v1.2.,2013-01-25 22:07:00,
2013-01-25 14:12:00,62.0,56.7,29.62,North,5,3.0,4.0,83,0.00,,,0.01,105,HR-IXPWINDi_r2_v1.2.,2013-01-25 22:12:00,
2013-01-25 14:18:00,61.6,56.7,29.62,NNE,24,3.0,4.0,84,0.00,,,0.01,102,HR-IXPWINDi_r2_v1.2.,2013-01-25 22:18:00,
2013-01-25 14:23:00,61.3,56.4,29.62,North,5,3.0,4.0,84,0.00,,,0.01,107,HR-IXPWINDi_r2_v1.2.,2013-01-25 22:23:00,
2013-01-25 14:28:00,60.7,55.8,29.63,North,355,4.0,5.0,84,0.00,,,0.01,102,HR-IXPWINDi_r2_v1.2.,2013-01-25 22:28:00,
2013-01-25 14:33:00,59.8,54.9,29.63,North,360,3.0,5.0,84,0.00,,,0.01,90,HR-IXPWINDi_r2_v1.2.,2013-01-25 22:33:00,
2013-01-25 14:39:00,59.0,54.4,29.63,North,360,2.0,5.0,85,0.00,,,0.01,79,HR-IXPWINDi_r2_v1.2.,2013-01-25 22:39:00,
2013-01-25 14:44:00,58.6,54.4,29.63,North,360,1.0,4.0,86,0.00,,,0.01,79,HR-IXPWINDi_r2_v1.2.,2013-01-25 22:44:00,
2013-01-25 14:49:00,58.4,54.2,29.63,North,355,3.0,4.0,86,0.00,,,0.01,81,HR-IXPWINDi_r2_v1.2.,2013-01-25 22:49:00,
2013-01-25 14:55:00,58.0,54.1,29.63,NNW,327,4.0,4.0,87,0.00,,,0.01,76,HR-IXPWINDi_r2_v1.2.,2013-01-25 22:55:00,
2013-01-25 15:00:00,57.6,53.7,29.63,NNW,328,1.0,4.0,87,0.00,,,0.01,76,HR-IXPWINDi_r2_v1.2.,2013-01-25 23:00:00,
2013-01-25 15:05:00,57.5,53.9,29.63,NNW,328,0.0,4.0,88,0.00,,,0.01,72,HR-IXPWINDi_r2_v1.2.,2013-01-25 23:05:00,
2013-01-25 15:10:00,57.5,54.2,29.63,NNW,328,0.0,2.0,89,0.00,,,0.01,72,HR-IXPWINDi_r2_v1.2.,2013-01-25 23:10:00,
2013-01-25 15:16:00,57.5,54.2,29.63,NNW,328,0.0,0.0,89,0.00,,,0.01,70,HR-IXPWINDi_r2_v1.2.,2013-01-25 23:16:00,
2013-01-25 15:21:00,57.3,54.0,29.63,NNW,342,3.0,5.0,89,0.00,,,0.01,72,HR-IXPWINDi_r2_v1.2.,2013-01-25 23:21:00,
2013-01-25 15:26:00,56.9,53.9,29.63,NNW,338,4.0,5.0,90,0.00,,,0.01,74,HR-IXPWINDi_r2_v1.2.,2013-01-25 23:26:00,
2013-01-25 15:31:00,56.8,54.1,29.63,WNW,298,6.0,6.0,91,0.00,,,0.01,72,HR-IXPWINDi_r2_v1.2.,2013-01-25 23:31:00,
2013-01-25 15:36:00,56.7,54.3,29.63,WNW,283,5.0,6.0,92,0.00,,,0.01,69,HR-IXPWINDi_r2_v1.2.,2013-01-25 23:36:00,
2013-01-25 15:41:00,56.8,54.4,29.63,WNW,284,4.0,6.0,92,0.00,,,0.01,40,HR-IXPWINDi_r2_v1.2.,2013-01-25 23:41:00,
2013-01-25 15:47:00,56.8,54.4,29.63,WNW,282,2.0,6.0,92,0.00,,,0.01,42,HR-IXPWINDi_r2_v1.2.,2013-01-25 23:47:00,
2013-01-25 15:52:00,56.8,54.4,29.63,West,281,2.0,6.0,92,0.00,,,0.01,60,HR-IXPWINDi_r2_v1.2.,2013-01-25 23:52:00,
2013-01-25 15:57:00,56.8,54.7,29.63,West,281,0.0,5.0,93,0.00,,,0.01,51,HR-IXPWINDi_r2_v1.2.,2013-01-25 23:57:00,
2013-01-25 16:02:00,56.9,54.8,29.63,West,281,2.0,4.0,93,0.00,,,0.01,44,HR-IXPWINDi_r2_v1.2.,2013-01-26 00:02:00,
2013-01-25 16:08:00,56.9,54.8,29.63,West,281,2.0,4.0,93,0.00,,,0.01,39,HR-IXPWINDi_r2_v1.2.,2013-01-26 00:08:00,
2013-01-25 16:13:00,57.0,54.9,29.62,West,281,1.0,4.0,93,0.00,,,0.01,37,HR-IXPWINDi_r2_v1.2.,2013-01-26 00:13:00,
2013-01-25 16:18:00,57.0,54.9,29.62,West,281,2.0,3.0,93,0.00,,,0.01,33,HR-IXPWINDi_r2_v1.2.,2013-01-26 00:18:00,
2013-01-25 16:24:00,57.0,54.9,29.62,WSW,250,3.0,5.0,93,0.00,,,0.01,28,HR-IXPWINDi_r2_v1.2.,2013-01-26 00:24:00,
2013-01-25 16:29:00,56.9,54.8,29.62,WSW,250,1.0,5.0,93,0.00,,,0.01,23,HR-IXPWINDi_r2_v1.2.,2013-01-26 00:29:00,
2013-01-25 16:34:00,57.0,54.9,29.62,WSW,250,0.0,4.0,93,0.00,,,0.01,19,HR-IXPWINDi_r2_v1.2.,2013-01-26 00:34:00,
2013-01-25 16:39:00,57.0,55.2,29.62,WSW,250,0.0,3.0,94,0.00,,,0.01,18,HR-IXPWINDi_r2_v1.2.,2013-01-26 00:39:00,
2013-01-25 16:44:00,57.0,55.2,29.62,WSW,250,0.0,2.0,94,0.00,,,0.01,16,HR-IXPWINDi_r2_v1.2.,2013-01-26 00:44:00,
2013-01-25 16:49:00,57.0,55.2,29.62,WSW,250,0.0,0.0,94,0.00,,,0.01,12,HR-IXPWINDi_r2_v1.2.,2013-01-26 00:49:00,
2013-01-25 16:55:00,57.0,55.2,29.62,WSW,250,0.0,0.0,94,0.00,,,0.01,11,HR-IXPWINDi_r2_v1.2.,2013-01-26 00:55:00,
2013-01-25 17:00:00,57.0,55.2,29.62,WSW,250,0.0,0.0,94,0.00,,,0.01,9,HR-IXPWINDi_r2_v1.2.,2013-01-26 01:00:00,
2013-01-25 17:05:00,56.9,55.1,29.62,WSW,250,0.0,1.0,94,0.00,,,0.01,9,HR-IXPWINDi_r2_v1.2.,2013-01-26 01:05:00,
2013-01-25 17:11:00,57.0,55.2,29.62,WSW,250,0.0,1.0,94,0.00,,,0.02,7,HR-IXPWINDi_r2_v1.2.,2013-01-26 01:11:00,
2013-01-25 17:16:00,57.0,55.2,29.62,WSW,250,0.0,0.0,94,0.00,,,0.02,5,HR-IXPWINDi_r2_v1.2.,2013-01-26 01:16:00,
2013-01-25 17:21:00,56.9,54.8,29.62,WSW,250,1.0,3.0,93,0.00,,,0.02,0,HR-IXPWINDi_r2_v1.2.,2013-01-26 01:21:00,
2013-01-25 17:26:00,56.9,55.1,29.62,WSW,250,2.0,3.0,94,0.00,,,0.02,0,HR-IXPWINDi_r2_v1.2.,2013-01-26 01:26:00,
2013-01-25 17:31:00,56.9,55.1,29.62,WSW,250,3.0,3.0,94,0.00,,,0.02,0,HR-IXPWINDi_r2_v1.2.,2013-01-26 01:31:00,
2013-01-25 17:37:00,56.9,54.8,29.62,WSW,250,3.0,3.0,93,0.00,,,0.03,0,HR-IXPWINDi_r2_v1.2.,2013-01-26 01:37:00,
2013-01-25 17:42:00,56.9,54.8,29.62,WSW,250,2.0,3.0,93,0.00,,,0.03,0,HR-IXPWINDi_r2_v1.2.,2013-01-26 01:42:00,
2013-01-25 17:47:00,56.9,54.8,29.62,WSW,248,3.0,3.0,93,0.00,,,0.03,0,HR-IXPWINDi_r2_v1.2.,2013-01-26 01:47:00,
2013-01-25 17:52:00,56.9,55.1,29.62,SW,225,3.0,4.0,94,0.00,,,0.03,0,HR-IXPWINDi_r2_v1.2.,2013-01-26 01:52:00,
2013-01-25 17:57:00,56.9,54.8,29.63,SW,219,3.0,5.0,93,0.00,,,0.03,0,HR-IXPWINDi_r2_v1.2.,2013-01-26 01:57:00,
2013-01-25 18:03:00,56.9,54.8,29.63,SW,222,2.0,5.0,93,0.00,,,0.03,0,HR-IXPWINDi_r2_v1.2.,2013-01-26 02:03:00,
2013-01-25 18:08:00,57.0,54.9,29.63,SW,219,2.0,5.0,93,0.00,,,0.03,0,HR-IXPWINDi_r2_v1.2.,2013-01-26 02:08:00,
2013-01-25 18:13:00,57.0,54.9,29.63,SW,223,2.0,4.0,93,0.00,,,0.03,0,HR-IXPWINDi_r2_v1.2.,2013-01-26 02:13:00,
2013-01-25 18:18:00,57.0,54.9,29.63,SW,217,1.0,4.0,93,0.00,,,0.03,0,HR-IXPWINDi_r2_v1.2.,2013-01-26 02:18:00,
2013-01-25 18:23:00,57.1,55.0,29.63,SSW,207,2.0,4.0,93,0.00,,,0.03,0,HR-IXPWINDi_r2_v1.2.,2013-01-26 02:23:00,
2013-01-25 18:28:00,57.1,55.0,29.63,SSW,205,4.0,4.0,93,0.00,,,0.03,0,HR-IXPWINDi_r2_v1.2.,2013-01-26 02:28:00,
2013-01-25 18:34:00,57.2,55.1,29.63,SSW,205,3.0,4.0,93,0.00,,,0.03,0,HR-IXPWINDi_r2_v1.2.,2013-01-26 02:34:00,
2013-01-25 18:39:00,57.3,54.9,29.63,SSW,204,2.0,4.0,92,0.00,,,0.03,0,HR-IXPWINDi_r2_v1.2.,2013-01-26 02:39:00,
2013-01-25 18:44:00,57.3,54.9,29.64,SSW,205,2.0,4.0,92,0.00,,,0.03,0,HR-IXPWINDi_r2_v1.2.,2013-01-26 02:44:00,
2013-01-25 18:49:00,57.4,55.0,29.64,SSW,211,3.0,5.0,92,0.00,,,0.03,0,HR-IXPWINDi_r2_v1.2.,2013-01-26 02:49:00,
2013-01-25 18:54:00,57.4,55.0,29.64,SW,221,2.0,5.0,92,0.00,,,0.03,0,HR-IXPWINDi_r2_v1.2.,2013-01-26 02:54:00,
2013-01-25 18:59:00,57.4,55.0,29.64,SW,215,3.0,4.0,92,0.00,,,0.03,0,HR-IXPWINDi_r2_v1.2.,2013-01-26 02:59:00,
2013-01-25 19:04:00,57.4,55.0,29.64,SSW,207,2.0,3.0,92,0.00,,,0.03,0,HR-IXPWINDi_r2_v1.2.,2013-01-26 03:04:00,
2013-01-25 19:10:00,57.4,55.0,29.64,SSW,204,2.0,4.0,92,0.00,,,0.03,0,HR-IXPWINDi_r2_v1.2.,2013-01-26 03:10:00,
2013-01-25 19:15:00,57.5,55.1,29.63,SSW,202,1.0,4.0,92,0.00,,,0.03,0,HR-IXPWINDi_r2_v1.2.,2013-01-26 03:15:00,
2013-01-25 19:20:00,57.5,55.1,29.63,South,186,1.0,3.0,92,0.00,,,0.03,0,HR-IXPWINDi_r2_v1.2.,2013-01-26 03:20:00,
2013-01-25 19:25:00,57.6,55.2,29.63,South,183,2.0,3.0,92,0.00,,,0.03,0,HR-IXPWINDi_r2_v1.2.,2013-01-26 03:25:00,
2013-01-25 19:30:00,57.7,55.0,29.63,South,178,1.0,3.0,91,0.00,,,0.03,0,HR-IXPWINDi_r2_v1.2.,2013-01-26 03:30:00,
2013-01-25 19:35:00,57.8,55.1,29.62,South,178,1.0,3.0,91,0.00,,,0.03,0,HR-IXPWINDi_r2_v1.2.,2013-01-26 03:35:00,
2013-01-25 19:40:00,58.0,55.3,29.62,South,178,0.0,3.0,91,0.00,,,0.03,0,HR-IXPWINDi_r2_v1.2.,2013-01-26 03:40:00,
2013-01-25 19:45:00,58.2,55.2,29.62,South,178,0.0,2.0,90,0.00,,,0.03,0,HR-IXPWINDi_r2_v1.2.,2013-01-26 03:45:00,
2013-01-25 19:51:00,58.3,55.3,29.62,South,178,0.0,1.0,90,0.00,,,0.03,0,HR-IXPWINDi_r2_v1.2.,2013-01-26 03:51:00,
2013-01-25 19:56:00,58.4,55.1,29.62,South,178,0.0,1.0,89,0.00,,,0.03,0,HR-IXPWINDi_r2_v1.2.,2013-01-26 03:56:00,
2013-01-25 20:01:00,58.6,55.3,29.62,South,178,0.0,1.0,89,0.00,,,0.03,0,HR-IXPWINDi_r2_v1.2.,2013-01-26 04:01:00,
2013-01-25 20:06:00,58.8,55.2,29.62,South,178,2.0,2.0,88,0.00,,,0.03,0,HR-IXPWINDi_r2_v1.2.,2013-01-26 04:06:00,
2013-01-25 20:11:00,58.9,55.3,29.62,South,178,0.0,2.0,88,0.00,,,0.03,0,HR-IXPWINDi_r2_v1.2.,2013-01-26 04:11:00,
2013-01-25 20:17:00,59.0,55.1,29.62,South,178,0.0,2.0,87,0.00,,,0.03,0,HR-IXPWINDi_r2_v1.2.,2013-01-26 04:17:00,
2013-01-25 20:22:00,59.1,55.2,29.61,South,178,0.0,1.0,87,0.00,,,0.03,0,HR-IXPWINDi_r2_v1.2.,2013-01-26 04:22:00,
2013-01-25 20:27:00,59.3,55.0,29.61,South,178,1.0,2.0,86,0.00,,,0.03,0,HR-IXPWINDi_r2_v1.2.,2013-01-26 04:27:00,
2013-01-25 20:32:00,59.4,55.1,29.61,South,178,0.0,2.0,86,0.00,,,0.03,0,HR-IXPWINDi_r2_v1.2.,2013-01-26 04:32:00,
2013-01-25 20:37:00,59.5,55.2,29.61,South,178,0.0,2.0,86,0.00,,,0.03,0,HR-IXPWINDi_r2_v1.2.,2013-01-26 04:37:00,
2013-01-25 20:42:00,59.2,54.6,29.61,WNW,300,3.0,5.0,85,0.00,,,0.03,0,HR-IXPWINDi_r2_v1.2.,2013-01-26 04:42:00,
2013-01-25 20:48:00,58.1,54.2,29.61,NW,319,2.0,5.0,87,0.00,,,0.03,0,HR-IXPWINDi_r2_v1.2.,2013-01-26 04:48:00,
2013-01-25 20:53:00,57.3,54.0,29.61,NW,311,4.0,5.0,89,0.00,,,0.03,0,HR-IXPWINDi_r2_v1.2.,2013-01-26 04:53:00,
2013-01-25 20:58:00,56.6,53.6,29.61,WNW,298,2.0,5.0,90,0.00,,,0.03,0,HR-IXPWINDi_r2_v1.2.,2013-01-26 04:58:00,
2013-01-25 21:00:00,56.3,53.3,29.61,WNW,300,4.0,5.0,90,0.00,,,0.03,0,HR-IXPWINDi_r2_v1.2.,2013-01-26 05:00:00,
2013-01-25 21:05:00,55.6,52.9,29.61,WNW,295,1.0,5.0,91,0.00,,,0.03,0,HR-IXPWINDi_r2_v1.2.,2013-01-26 05:05:00,
2013-01-25 21:10:00,55.5,53.1,29.62,WNW,292,0.0,5.0,92,0.00,,,0.03,0,HR-IXPWINDi_r2_v1.2.,2013-01-26 05:10:00,
2013-01-25 21:16:00,55.4,53.0,29.62,WNW,292,0.0,3.0,92,0.00,,,0.03,0,HR-IXPWINDi_r2_v1.2.,2013-01-26 05:16:00,
2013-01-25 21:21:00,55.4,53.3,29.61,SW,222,3.0,4.0,93,0.00,,,0.03,0,HR-IXPWINDi_r2_v1.2.,2013-01-26 05:21:00,
2013-01-25 21:26:00,55.4,53.3,29.61,SW,223,3.0,5.0,93,0.00,,,0.03,0,HR-IXPWINDi_r2_v1.2.,2013-01-26 05:26:00,
2013-01-25 21:31:00,55.3,53.5,29.62,SW,235,3.0,5.0,94,0.00,,,0.03,0,HR-IXPWINDi_r2_v1.2.,2013-01-26 05:31:00,
2013-01-25 21:36:00,55.2,53.4,29.62,SW,228,3.0,5.0,94,0.00,,,0.03,0,HR-IXPWINDi_r2_v1.2.,2013-01-26 05:36:00,
2013-01-25 21:42:00,55.1,53.3,29.61,SSW,193,3.0,5.0,94,0.00,,,0.03,0,HR-IXPWINDi_r2_v1.2.,2013-01-26 05:42:00,
2013-01-25 21:47:00,55.1,53.6,29.61,SSW,194,3.0,4.0,95,0.00,,,0.03,0,HR-IXPWINDi_r2_v1.2.,2013-01-26 05:47:00,
2013-01-25 21:52:00,55.1,53.6,29.61,South,180,5.0,5.0,95,0.00,,,0.03,0,HR-IXPWINDi_r2_v1.2.,2013-01-26 05:52:00,
2013-01-25 21:57:00,55.1,53.6,29.61,SSW,196,0.0,5.0,95,0.00,,,0.03,0,HR-IXPWINDi_r2_v1.2.,2013-01-26 05:57:00,
2013-01-25 22:02:00,55.1,53.6,29.61,SSW,192,2.0,5.0,95,0.00,,,0.03,0,HR-IXPWINDi_r2_v1.2.,2013-01-26 06:02:00,
2013-01-25 22:08:00,55.2,53.7,29.61,South,191,1.0,3.0,95,0.00,,,0.03,0,HR-IXPWINDi_r2_v1.2.,2013-01-26 06:08:00,
2013-01-25 22:13:00,55.3,53.8,29.61,South,191,0.0,3.0,95,0.00,,,0.03,0,HR-IXPWINDi_r2_v1.2.,2013-01-26 06:13:00,
2013-01-25 22:18:00,55.3,53.8,29.61,South,191,0.0,1.0,95,0.00,,,0.03,0,HR-IXPWINDi_r2_v1.2.,2013-01-26 06:18:00,
2013-01-25 22:23:00,55.3,53.8,29.60,East,100,3.0,5.0,95,0.00,,,0.03,0,HR-IXPWINDi_r2_v1.2.,2013-01-26 06:23:00,
2013-01-25 22:28:00,55.5,54.3,29.60,ESE,106,3.0,5.0,96,0.00,,,0.03,0,HR-IXPWINDi_r2_v1.2.,2013-01-26 06:28:00,
2013-01-25 22:33:00,55.8,54.3,29.61,East,100,2.0,5.0,95,0.00,,,0.03,0,HR-IXPWINDi_r2_v1.2.,2013-01-26 06:33:00,
2013-01-25 22:38:00,55.9,54.7,29.60,ENE,78,2.0,4.0,96,0.00,,,0.03,0,HR-IXPWINDi_r2_v1.2.,2013-01-26 06:38:00,
2013-01-25 22:43:00,55.9,54.4,29.60,East,98,5.0,5.0,95,0.00,,,0.03,0,HR-IXPWINDi_r2_v1.2.,2013-01-26 06:43:00,
2013-01-25 22:48:00,55.9,54.4,29.60,ESE,105,4.0,5.0,95,0.00,,,0.03,0,HR-IXPWINDi_r2_v1.2.,2013-01-26 06:48:00,
2013-01-25 22:53:00,56.2,54.7,29.60,East,99,8.0,8.0,95,0.00,,,0.03,0,HR-IXPWINDi_r2_v1.2.,2013-01-26 06:53:00,
2013-01-25 22:58:00,56.4,54.9,29.60,ESE,104,8.0,9.0,95,0.00,,,0.04,0,HR-IXPWINDi_r2_v1.2.,2013-01-26 06:58:00,
2013-01-25 23:04:00,56.7,54.9,29.60,East,96,6.0,9.0,94,0.00,,,0.04,0,HR-IXPWINDi_r2_v1.2.,2013-01-26 07:04:00,
2013-01-25 23:09:00,56.9,54.8,29.60,ESE,117,7.0,9.0,93,0.00,,,0.04,0,HR-IXPWINDi_r2_v1.2.,2013-01-26 07:09:00,
2013-01-25 23:14:00,57.0,54.9,29.60,ESE,109,4.0,9.0,93,0.00,,,0.04,0,HR-IXPWINDi_r2_v1.2.,2013-01-26 07:14:00,
2013-01-25 23:19:00,57.1,54.7,29.60,ESE,115,2.0,7.0,92,0.00,,,0.04,0,HR-IXPWINDi_r2_v1.2.,2013-01-26 07:19:00,
2013-01-25 23:25:00,56.8,54.4,29.60,WSW,252,0.0,5.0,92,0.00,,,0.04,0,HR-IXPWINDi_r2_v1.2.,2013-01-26 07:25:00,
2013-01-25 23:30:00,56.7,54.3,29.60,SSW,196,0.0,2.0,92,0.00,,,0.04,0,HR-IXPWINDi_r2_v1.2.,2013-01-26 07:30:00,
2013-01-25 23:35:00,56.4,54.0,29.60,SSW,198,0.0,2.0,92,0.00,,,0.04,0,HR-IXPWINDi_r2_v1.2.,2013-01-26 07:35:00,
2013-01-25 23:40:00,56.3,53.9,29.60,SSW,198,0.0,2.0,92,0.00,,,0.04,0,HR-IXPWINDi_r2_v1.2.,2013-01-26 07:40:00,
2013-01-25 23:45:00,56.2,53.8,29.59,SSW,198,0.0,0.0,92,0.00,,,0.04,0,HR-IXPWINDi_r2_v1.2.,2013-01-26 07:45:00,
2013-01-25 23:51:00,56.0,53.6,29.60,SSW,198,0.0,0.0,92,0.00,,,0.04,0,HR-IXPWINDi_r2_v1.2.,2013-01-26 07:51:00,
2013-01-25 23:56:00,55.9,53.8,29.60,SSW,198,0.0,0.0,93,0.00,,,0.04,0,HR-IXPWINDi_r2_v1.2.,2013-01-26 07:56:00,